STARLINK-11535, 62595

Orbit data source: Space-Track

STARLINK-11535, 62595 is a payload satellite owned by SpaceX/Seattle (US) in LEO that was launched on Mon, 13 Jan 2025 UTC via an FALCON 9 launch vehicle from the Air Force Eastern Test Range (AFETR). Payload-class satellites include a variety of spacecraft equipped with specific instruments for various scientific and technological missions. These include communications satellites like Starlink; space stations such as the ISS; scientific satellites like the Hubble; Earth observation satellites from companies like Planet Labs, Umbra, and HawkEye 360; GPS; miniature CubeSats for education and research; and military/defense satellites.

Loading next visibility...
Identifier
62595, 2025-008J
Orbit
LEO
Last TLE update
5 hours ago
Origin
Manufacturer
SpaceX/Seattle
Mission
Operational Commercial Communications
Bus & Motor
STARLINK V2M, Unknown motor
Mass
730 kg wet, ~700 kg dry
Launch date (UTC)
2025-01-13 (6 months ago)
Launch vehicle
FALCON 9
Launch site
Air Force Eastern Test Range (AFETR)
Object type
Payload
Rocket body
Debris
Shape & HBR
Box + 2 Pan, 29 m
Radar Cross Section
36.964 m², Large (>1 m²)

Expand to show TLE details & history

TLE from 5 hours ago
0 STARLINK-11535
1 62595U 25008J   25182.18687587  .00179241  00000-0  13699-2 0  9994
2 62595  43.0021 201.7567 0004608 285.5721  74.4638 15.70840845 27581
Epoch: 2025-07-01T04:29Z
TLE epoch observation values (Epoch: 2025-07-01T04:29:06.075Z)
Latitude
Longitude
-145.00454°
Altitude
355.434 km
Speed
7.698 km/s
True Right ascension
13h 27m 01s
True Declination
0° 00' 00"
Sunlit
Object was in daylight at epoch
Visualization orbit readout
Latitude
34.83705°
Longitude
-14.19699°
Altitude
360.653 km
Speed
7.696 km/s
Apparent Right ascension
01h 57m 15s
Apparent Declination
-9° 33' 08"
Sunlit
Object is in daylight
Visualization observer readout
Local Sidereal Time
21:13:27
Azimuth
109.703° ESE
Elevation
8.07°
Doppler factor
1
Orbital elements
Apogee altitude
361.578 km
Perigee altitude
355.37 km
Semi-major axis
6,736.611 km
Eccentricity
0.00046
Inclination
43.0021°
RAAN
201.7567°
Arg. of periapsis
285.5721°
True anomaly
Unknown
Mean anomaly
74.4638°
Eccentric anomaly
Unknown
Mean motion
3.92537 °/min
Orbital period
91.71 mins
BSTAR
0.0013699
Loading maneuver chart data...
Loading SW <> Apogee altitude chart data...
Loading historical data...
Loading historical data...
Loading historical data...
Loading historical data...
Loading historical data...
Loading historical data...
Loading historical data...

STARLINK-11535 Visibility forecast

Observer location: undefined°, undefined°

Span
Click to sort rows by Start time (UTC) header in descending order
Start Az.
Max El. time (UTC)
Max El. Az.
Max El.
End time (UTC)
End Az.
4 mins2025-07-02 05:09:09.176Z230.762° WSW2025-07-02 05:10:09.176Z201.474° SSW38.994°2025-07-02 05:13:09.176Z76.778° E
4 mins2025-07-02 06:45:09.176Z289.968° WNW2025-07-02 06:47:09.176Z24.086° NE33.654°2025-07-02 06:49:09.176Z67.394° ENE
4 mins2025-07-02 08:21:09.176Z296.58° NW2025-07-02 08:23:09.176Z24.878° NE39.915°2025-07-02 08:25:09.176Z88.645° E
|